Flag for Brazil Weather past 2 weeks in Sorocaba, São Paulo, Brazil

Now
81 °F

Passing clouds.


Feels Like: 81 °F
Forecast: N/A
Wind: 7 mph from Southwest

Location: Campinas Aeroporto


UV Index: N/A

Visibility: N/A


Pressure: 30.01 "Hg

Humidity: 51%

Dew point: 61 °F

Location of SorocabaLocation

Historic Weather in Sorocaba

°F

Sorocaba temperature yesterday

Maximum temperature yesterday: 77 °F (at 1:00 PM)
Minimum temperature yesterday: 64 °F (at 12:00 AM)
Average temperature yesterday: 70 °F

Past Weeks' High & Low Weather Summary

 TemperatureHumidityPressure
High90 °F (Apr 8, 3:00 PM)100% (Apr 12, 9:00 PM)30.21 "Hg (Apr 12, 9:00 PM)
Low63 °F (Apr 15, 8:00 AM)25% (Apr 7, 4:00 PM)29.86 "Hg (Apr 9, 4:00 PM)
Average74 °F70%30.04 "Hg
* Reported Apr 2 4:00 PM — Apr 17 4:00 PM, Sorocaba, Weather by CustomWeather, © 2014

Note: Actual official high and low records may vary slightly from our data, if they occured in-between our weather recording intervals... More about our weather records

Advertising

Historic Weather Conditions — Data for Previous 24 hours

 ConditionsComfort  
Time TempWeatherWind HumidityBarometerVisibility
4:00 PM
Apr 17
82 °FPassing clouds.9 mph48%30.01 "HgN/A
3:00 PM81 °FScattered clouds.9 mph58%30.01 "HgN/A
2:00 PM81 °FScattered clouds.9 mph58%30.04 "HgN/A
1:00 PM79 °FScattered clouds.8 mph61%30.04 "HgN/A
12:00 PM79 °FPartly sunny.7 mph61%30.07 "HgN/A
11:00 AM77 °FPartly sunny.5 mph65%30.09 "HgN/A
10:00 AM75 °FPassing clouds.7 mph69%30.09 "HgN/A
9:00 AM73 °FSunny.6 mph74%30.09 "Hg10 mi
8:00 AM68 °FSunny.7 mph83%30.07 "Hg10 mi
7:00 AM66 °FClear.10 mph88%30.07 "Hg6 mi
6:00 AM66 °FSunny.9 mph88%30.07 "Hg10 mi
4:00 AM66 °FClear.9 mph88%30.04 "Hg10 mi
3:00 AM66 °FClear.13 mph88%30.04 "Hg10 mi
2:00 AM66 °FClear.7 mph88%30.04 "Hg10 mi
1:00 AM66 °FClear.12 mph88%30.07 "Hg10 mi
12:00 AM66 °FClear.9 mph88%30.07 "Hg10 mi
11:00 PM
Apr 16
66 °FClear.12 mph88%30.07 "Hg10 mi
10:00 PM68 °FClear.14 mph83%30.09 "Hg10 mi
9:00 PM68 °FClear.12 mph83%30.09 "Hg10 mi
8:00 PM70 °FClear.13 mph78%30.07 "Hg10 mi
7:00 PM70 °FClear.10 mph83%30.07 "Hg10 mi
6:00 PM73 °FPassing clouds.13 mph74%30.04 "HgN/A
5:00 PM77 °FPassing clouds.13 mph65%30.04 "HgN/A
Weather by CustomWeather, © 2014

See weather overview